Location: Antioch Baptist Church
(32.6696°N, 85.7327°W)
Time: 12:17:46
(UTC+00:00)

NOSS 3-3 (A) - Pass Details

Date: 14 July 2020
Orbit: 825 x 1387 km, 63.4° (Epoch: 03 August)

Event Time Altitude Azimuth Distance (km) Brightness Sun altitude
Rises 01:16:58 0° 218° (SW) 3,357 6.9 -5.4°
Reaches altitude 10° 01:19:21 10° 221° (SW) 2,449 6.3 -5.9°
Maximum altitude 01:24:54 63° 302° (WNW) 986 4.4 -6.9°
Drops below altitude 10° 01:31:04 10° 24° (NNE) 2,706 6.4 -8.0°
Sets 01:33:50 0° 27° (NNE) 3,739 7.1 -8.5°
